Location: Melizzano
(41.1500°N, 14.5000°E)
Time: 21:17:57
(UTC+00:00)

Meteor 2-6 Rocket - Pass Details

Date: 11 May 2021
Orbit: 807 x 913 km, 81.3° (Epoch: 24 June)

Event Time Altitude Azimuth Distance (km) Brightness Sun altitude
Exits shadow 20:12:21 30° 173° (S) 1,427 4.9 -19.4°
Maximum altitude 20:15:05 71° 97° (E) 864 4.0 -19.7°
Drops below altitude 10° 20:20:34 10° 14° (NNE) 2,444 7.1 -20.4°
Sets 20:23:01 0° 12° (NNE) 3,396 7.9 -20.7°
